Hourly Data Report for August 28, 2021

ALGONQUIN PARK EAST GATE
ONTARIO
Current Station Operator: ECCC - MSC

45°32'00.000" N
78°16'00.000" W
397.00 m
6080192
71581
TNK

Download Data

Hourly Data (August 2021)
Hourly Data Report for August 28, 2021
TIME
LST
Temp Definition
°C
Dew Point Definition
°C
Rel Hum Definition
%
Precip. Amount Definition
mm

Wind Dir Definition
10's deg

Wind Spd Definition
km/h
Visibility Definition
km
Stn Press Definition
kPa
Hmdx Definition


Wind Chill Definition


Weather Definition


00:00 14.6 10.4 76 0.0 6 1   97.75     LegendNANA
01:00 14.7 10.6 76 0.0 2 1   97.74     LegendNANA
02:00 14.0 11.1 83 0.0   0   97.73     LegendNANA
03:00 14.6 11.0 79 0.0 0 1   97.71     LegendNANA
04:00 14.3 11.6 84 0.0   0   97.68     LegendNANA
05:00 15.1 11.0 76 0.0 5 2   97.64     LegendNANA
06:00 15.2 11.3 78 0.0 10 2   97.67     LegendNANA
07:00 15.2 11.4 78 0.0 10 3   97.68     LegendNANA
08:00 15.4 11.4 77 0.0 9 3   97.68     LegendNANA
09:00 15.7 11.7 77 0.0 11 5   97.65     LegendNANA
10:00 17.5 11.5 68 0.0 13 8   97.64     LegendNANA
11:00 18.0 12.1 69 0.0 16 4   97.65     LegendNANA
12:00 17.2 15.7 91 2.1 14 3   97.53     LegendNANA
13:00 18.6 15.5 82 0.0 13 5   97.50     LegendNANA
14:00 20.9 16.6 76 0.0 15 5   97.44 26   LegendNANA
15:00 21.9 17.4 76 0.0 13 6   97.43 27   LegendNANA
16:00 21.7 17.4 77 0.0 12 9   97.37 27   LegendNANA
17:00 21.7 18.2 80 0.0 11 4   97.40 28   LegendNANA
18:00 20.7 18.2 85 0.0 10 3   97.39 27   LegendNANA
19:00 19.9 18.0 89 0.0 8 1   97.36     LegendNANA
20:00 19.3 17.9 92 0.0   0   97.40     LegendNANA
21:00 19.0 17.6 92 0.0   0   97.40     LegendNANA
22:00 17.8 16.8 94 0.0   0   97.37     LegendNANA
23:00 17.1 16.5 96 0.0   0   97.37     LegendNANA

Notes on Data Quality.

Legend

  • E = Estimated
  • M = Missing
  • NA = Not Available*
  • [empty] = Indicates an unobserved value
Date modified: